ONEWEB-0018 (45434 NORAD) Tracking and Keplerian Element Data

This shows tracking and keplerian element data for the satellite.

Feedback or suggestion? Click here.




ElementValue
Catalog45434
NameONEWEB-0018
Epoch Orbit1635
Epoch Day190.25001157
Epoch Year2020
RAAN103.536
Inclination87.5542
Eccentricity0.0022669
Argument of Perigee266.3663
Mean Anonmoly1.6847
Mean Motion14.90208846
Decay Rate0.00014479
L11 45434U 20020L 20190.25001157 .00014479 00000-0 14832-2 0 9992
L22 45434 87.5542 103.5360 0022669 266.3663 1.6847 14.90208846 16351

Live tracking and technical data element details for ONEWEB-0018 (NORAD 45434). ONEWEB-0018 can be tracked NOW for your location showing map with azimuth and elevation plus other details from your city location.

Track the satellite on the map from your city or location and see movement details for azimuth, elevation, latitude, longitude, range, height, and movement on the map or in text.







IsCatalogInMostPopularTable: catalog: 45434, numindb: 20
Update: records affected: 1



GetName: 45434 ONEWEB-0018

Hit Count: updated at: Fri, 10 Jul 2020 04:19:32 GMT